Regional Weather Roundup
Issued by NWS

Home | Current Version | Previous Version | Text Only | Print | Product List | Glossary Off
Versions: 1 2 3 4 5 6 7 8 9 10 11 12 13 14 15 16 17 18 19 20 21 22 23 24 25 26 27 28 29 30 31 32 33 34 35 36 37 38 39 40 41 42 43 44 45 46 47 48 49 50

000
ASUS43 KFSD 040610
RWRSD

WEATHER ROUNDUP FOR SOUTH DAKOTA
NATIONAL WEATHER SERVICE SIOUX FALLS SD
100 AM CDT TUE AUG 04 2015

NOTE: "FAIR" INDICATES FEW OR NO CLOUDS BELOW 12,000 FEET WITH NO
SIGNIFICANT WEATHER AND/OR OBSTRUCTIONS TO VISIBILITY.


SDZ001>005-009-010-012>017-040700-
NORTHWEST AND NORTH CENTRAL SOUTH DAKOTA

CITY           SKY/WX    TMP DP  RH WIND       PRES   REMARKS
BUFFALO          N/A     68  53  58 E10       29.91F
FAITH            N/A     69  50  50 SE15      29.96F
MOBRIDGE       PTCLDY    66  54  65 E10       29.95R
$$

SDZ012>016-024>037-041>051-057-063-072>074-040700-
SOUTHWEST AND SOUTH CENTRAL SOUTH DAKOTA

CITY           SKY/WX    TMP DP  RH WIND       PRES   REMARKS
RAPID CTY ARPT CLOUDY    68  59  73 CALM      29.97F
PIERRE         PTCLDY    65  56  72 E8        29.94S
CUSTER         CLOUDY    62  55  77 NE6       30.09F
ELLSWORTH AFB  CLOUDY    69  60  72 W6        29.98R
PHILIP         MOCLDY    73  59  61 E12       29.93F THUNDER
PINE RIDGE     PTCLDY    71  59  65 E9        29.94S
WINNER         MOCLDY    72  59  63 SE8       29.97S
$$

SDZ004>011-016>023-039-040-040700-
NORTHEAST SOUTH DAKOTA

CITY           SKY/WX    TMP DP  RH WIND       PRES   REMARKS
ABERDEEN       CLEAR     60  53  77 CALM      29.97S
WATERTOWN      CLEAR     61  51  70 CALM      29.99S
BROOKINGS      CLEAR     63  52  67 E3        30.01S
SISSETON         N/A     52  49  89 CALM      29.97S
$$

SDZ017-020-022-023-036>040-048>070-040700-
SOUTHEAST SOUTH DAKOTA

CITY           SKY/WX    TMP DP  RH WIND       PRES   REMARKS
SIOUX FALLS    CLEAR     60  57  89 CALM      29.99R
HURON          PTCLDY    64  56  75 SE6       29.96S
CHAMBERLAIN    PTCLDY    64  58  79 SE6       29.97S
MITCHELL       PTCLDY    63  57  81 SE7       29.97F
YANKTON        PTCLDY    66  63  88 E3        29.97S
$$

ABBREVIATIONS USED IN REMARKS
   TC - TEMPERATURE IN CELSIUS
  WCI - WIND CHILL INDEX
   HX - HEAT INDEX
  VSB - VISIBILITY




USA.gov is the U.S. government's official web portal to all federal, state and local government web resources and services.